User: anonymous   Login
Location: Asheville, NC
(35.6000°N, 82.5500°W)
Time: 22:00:55
(UTC-04:00)
Language:

SRMSAT - Orbit

View from above orbital plane
View from above orbital plane
View from above satellite
View from above satellite

Ground track
Ground track

The orbit data is extracted from the following two-line orbital elements,

1 37841U 11058D   18197.59480233 +.00000301 +00000-0 +20141-4 0  9994
2 37841 019.9718 268.7411 0012003 093.0833 057.4370 14.10609948348947
Epoch (UTC): 16 July 2018 14:16:30
Eccentricity: 0.0012003
inclination: 19.9718°
perigee height: 848 km
apogee height: 866 km
right ascension of ascending node: 268.7411°
argument of perigee: 93.0833°
revolutions per day: 14.10609948
mean anomaly at epoch: 57.4370°
orbit number at epoch: 34894

The dashed part of the orbit path shows where the satellite is in the earth's shadow,  

DLR